Regional Weather Roundup
Issued by NWS State College, PA

Home | Current Version | Previous Version | Text Only | Print | Product List | Glossary Off
Versions: 1 2 3 4 5 6 7 8 9 10 11 12 13 14 15 16 17 18 19 20 21 22 23 24 25 26 27 28 29 30 31 32 33 34 35 36 37 38 39 40 41 42 43 44 45 46 47 48 49 50

000
ASUS41 KCTP 050610
RWRCTP

REGIONAL WEATHER ROUNDUP
NATIONAL WEATHER SERVICE STATE COLLEGE PA
200 AM EDT SAT SEP 05 2015

Note: "fair" indicates few or no clouds below 12,000 feet with no
significant weather and/or obstructions to visibility.

* = STATION THAT DOES NOT REPORT PRECIPITATION /E.G. RAIN...SNOW...ETC/
    THUNDER OR FOG.

PAZ002>004-007>009-013>016-020>023-029>032-050700-
WESTERN PENNSYLVANIA

CITY           SKY/WX    TMP DP  RH WIND       PRES   REMARKS
ERIE           CLEAR     71  62  73 S12       30.11R
MEADVILLE      CLEAR     68  61  78 CALM      30.15R
FRANKLIN*      CLEAR     63  61  94 SE5       30.17S
NEW CASTLE     FAIR      66  66 100 CALM      30.14S FOG
BEAVER COUNTY  NOT AVBL
BUTLER*          N/A     64  63  94 CALM      30.15S
PITTSBURGH INT PTCLDY    71  64  78 E5        30.13R
PITTSBURGH     PTCLDY    70  63  78 CALM      30.13R HAZE
INDIANA*       MOCLDY    70  66  88 E3        30.19R
LATROBE        NOT AVBL
WASHINGTON CO* PTCLDY    63  63 100 CALM      30.14R
$$

PAZ004>006-010>012-017>019-024>028-033>037-041-042-045-046-049>053-050700-
CENTRAL PENNSYLVANIA

CITY           SKY/WX    TMP DP  RH WIND       PRES   REMARKS
BRADFORD       CLEAR     61  59  93 S3        30.20S
DUBOIS         PTCLDY    69  64  84 E6        30.18R HAZE
CLEARFIELD     PTCLDY    67  64  90 NE7       30.19S
JOHNSTOWN      PTCLDY    68  64  87 SE6       30.20F
ALTOONA        MOCLDY    70  66  87 E3        30.20S
STATE COLLEGE  CLOUDY    73  68  84 CALM      30.19R THUNDER
WILLIAMSPORT   CLOUDY    75  67  76 E12       30.17R
SELINSGROVE    MOCLDY    73  66  78 S6        30.18F
FT INDIANTOWN  CLEAR     70  64  81 E6        30.20S
CAPITAL CITY   CLOUDY    74  66  76 E9        30.18S
HARRISBURG     MOCLDY    74  66  76 E10       30.17S
YORK           CLOUDY    72  67  84 E7        30.18S
$$

PAZ038>040-043-044-047-048-054-055-060>062-067>071-050700-
EASTERN PENNSYLVANIA

CITY           SKY/WX    TMP DP  RH WIND       PRES   REMARKS
SCRANTON       PTCLDY    71  65  81 CALM      30.21S
MOUNT POCONO   CLOUDY    64  63  96 SE6       30.26S FOG
ALLENTOWN      MOCLDY    70  64  83 E5        30.22R
QUAKERTOWN*    PTCLDY    66  64  94 CALM      30.22S
READING        MOCLDY    71  64  78 NE6       30.19S
LANCASTER      CLOUDY    71  66  84 E6        30.19S
COATESVILLE    PTCLDY    70  66  88 E9        30.20S
POTTSTOWN      MOCLDY    67  65  93 CALM      30.21S
BLUE BELL      CLEAR     68  64  88 CALM      30.19S
DOYLESTOWN     MOCLDY    66  64  93 N3        30.20S
WILLOW GROVE   NOT AVBL
NORTH PHILA    PTCLDY    73  62  68 E9        30.20F
PHILADELPHIA   PTCLDY    73  65  75 NE7       30.19S
$$



USA.gov is the U.S. government's official web portal to all federal, state and local government web resources and services.